User: anonymous
Location: South Tamworth Observatory
(43.8246°N, 71.3026°W)
Time: 19:59:34
(UTC-04:00)
Language:

Cosmos 2208 Rocket - Orbit

View from above orbital plane
View from above orbital plane
View from above satellite
View from above satellite

Ground track
Ground track

The orbit data is extracted from the following two-line orbital elements,

1 22081U 92053B   14293.45869032  .00000291  00000-0  11475-3 0  7090
2 22081 074.0468 050.8195 0037196 258.8478 100.8491 14.33116202159764
Epoch (UTC): 20 October 2014 11:00:30
Eccentricity: 0.0037196
inclination: 74.0468°
perigee height: 755 km
apogee height: 808 km
right ascension of ascending node: 50.8195°
argument of perigee: 258.8478°
revolutions per day: 14.33116202
mean anomaly at epoch: 100.8491°
orbit number at epoch: 15976

The dashed part of the orbit path shows where the satellite is in the earth's shadow,  

DLR